Location: Newark
(49.2191°N, 12.6671°E)
Time: 19:43:25
(UTC+00:00)

Explorer 11/Cluster Stage 4 - All Passes

Search period start: 21 January 2020 00:00
Search period end: 31 January 2020 00:00
Orbit: 467 x 1259 km, 28.8° (Epoch: 21 January)

Date Brightness Start Highest point End Pass type
(mag) Time Alt. Az. Time Alt. Az. Time Alt. Az.
21 Jan - 16:17:06 10° SSW 16:18:20 11° S 16:19:32 10° S visible
22 Jan - 16:05:15 10° SSW 16:07:24 12° S 16:09:26 10° SSE daylight
23 Jan - 14:07:01 10° S 14:08:51 11° S 14:10:39 10° SSE daylight
23 Jan - 15:53:42 10° SSW 15:56:26 12° S 15:59:01 10° SSE daylight
24 Jan - 13:54:59 10° SSW 13:57:51 12° S 14:00:37 10° SSE daylight
24 Jan - 15:42:19 10° SSW 15:45:28 13° S 15:48:25 10° SSE daylight
25 Jan - 13:43:17 10° SSW 13:46:49 13° S 13:50:13 10° SE daylight
25 Jan - 15:31:02 10° SW 15:34:28 14° S 15:37:42 10° SSE daylight
26 Jan - 13:31:47 10° SSW 13:35:47 15° S 13:39:39 10° SE daylight
26 Jan - 15:19:50 10° SW 15:23:27 14° S 15:26:52 10° SSE daylight
27 Jan - 13:20:24 10° SSW 13:24:43 15° S 13:28:55 10° SE daylight
27 Jan - 15:08:43 10° SW 15:12:25 14° S 15:15:57 10° SSE daylight
28 Jan - 11:24:11 10° S 11:25:59 11° SSE 11:27:47 10° SSE daylight
28 Jan - 13:09:07 10° SSW 13:13:40 16° S 13:18:06 10° SE daylight
28 Jan - 14:57:40 10° SW 15:01:22 14° SSW 15:04:55 10° SSE daylight
29 Jan - 11:12:18 10° S 11:14:54 12° SSE 11:17:32 10° SE daylight
29 Jan - 12:57:56 10° SSW 13:02:35 16° S 13:07:12 10° SE daylight
29 Jan - 14:46:42 10° SW 14:50:18 14° SSW 14:53:47 10° SSE daylight
30 Jan - 11:00:46 10° S 11:03:49 13° SSE 11:06:55 10° SE daylight
30 Jan - 12:46:49 10° SW 12:51:31 17° S 12:56:12 10° SE daylight
30 Jan - 14:35:51 10° SW 14:39:14 13° SSW 14:42:31 10° S daylight
